Location: Hylvaty SDH
(49.9612°N, 16.4057°E)
Time: 21:12:52
(UTC+01:00)

Vanguard 1 Rocket - Pass Details

Date: 11 October 2020
Orbit: 656 x 4221 km, 34.3° (Epoch: 30 October)

Event Time Altitude Azimuth Distance (km) Brightness Sun altitude
Rises 14:59:20 0° 207° (SSW) 3,503 11.7 25.3°
Reaches altitude 10° 15:02:18 10° 188° (S) 2,886 11.1 25.0°
Maximum altitude 15:07:01 19° 145° (SE) 2,838 10.2 24.5°
Drops below altitude 10° 15:13:41 10° 106° (ESE) 4,324 10.7 23.8°
Sets 15:19:44 0° 92° (E) 6,075 11.2 23.2°
